User: anonymous   Login
Location: Unspecified
(53.0941°N, 0.0000°E)
Time: 04:15:02
(UTC+00:00)
Language:

SL-24 DEB - Orbit

View from above orbital plane
View from above orbital plane
View from above satellite
View from above satellite

Ground track
Ground track

The orbit is defined by the following mean orbital elements,

1 37586U          26086.51566332 +.00000000 +00000-0 +69030-3 0 00006
2 37586  98.1561 114.0139 0284537 254.6061 102.3514 14.09475308    00
Epoch (UTC): 27 March 2026 12:22:33
Eccentricity: 0.0284537
inclination: 98.1561°
perigee height: 655 km
apogee height: 1067 km
right ascension of ascending node: 114.0139°
argument of perigee: 254.6061°
revolutions per day: 14.09475308
mean anomaly at epoch: 102.3514°

The dashed part of the orbit path shows where the satellite is in the earth's shadow,  

DLR